Tracking 22842 objects as of 15-Apr-2021
HD Live streaming from Space Station
objects crossing your sky now

STARLINK-1542

Track STARLINK-1542 now!
10-day predictions
STARLINK-1542 is classified as:


NORAD ID: 46073
Int'l Code: 2020-055AY
Perigee: 553.4 km
Apogee: 555.4 km
Inclination: 53.1 °
Period: 95.6 minutes
Semi major axis: 6925 km
RCS: Unknown
Launch date: August 7, 2020
Source: United States (US)
Launch site: AIR FORCE EASTERN TEST RANGE (AFETR)
aabbcc
Your satellite tracking list
Your tracking list is empty




NASA's NSSDC Master Catalog

Two Line Element Set (TLE):
1 46073U 20055AY  21104.76952451 -.00001023  00000-0 -49831-4 0  9996
2 46073  53.0573 211.8682 0001448 113.6671 246.4470 15.06394084 38991
Source of the keplerian elements: AFSPC